Date String (YYYY-MM-DD hh:mm:ss) UTC,Instrument flags,absolute air pressure of the measurement (hPa),sample flow rate (lpm),inlet stack bypass flow (lpm),air temperature of the measurement (°C),ambient temperature measured by the external sensor (°C),aerosol sample conditioner tube jacket temperature (°C),OPC LED temperature (°C),internal box temperature (°C),relative humidity of the measurement (%),span deviation,mass concentration of particles derived from Lorenz-Mie calculation of OPC scattering (μg/m³),mass concentration of particles derived from Lorenz-Mie calculation of OPC scattering (μg/m³),mass concentration of particles derived from Lorenz-Mie calculation of OPC scattering (μg/m³)
DateTimeUTC,F1_M11,P_M11,Q1_M11,Q2_M11,T1_M11,T2_M11,T3_M11,T4_M11,T5_M11,U1_M11,ZSPAN_M11,X0_M11,X2_M11,X1_M11
2023-06-19 17:00:00,SystemResetWarning,0825.3,4.99,000.00,031.6,026.1,000.0,039.3,031.1,31.2,0000.0,0016.97,0005.79,0004.70
2023-06-19 17:01:00,SystemResetWarning,0825.4,4.99,000.00,031.5,026.5,000.0,039.4,031.2,30.2,0000.0,0017.07,0005.74,0004.70
2023-06-19 17:02:00,SystemResetWarning,0825.4,5.01,000.00,031.5,026.9,000.0,039.4,031.2,29.1,0000.0,0016.05,0005.71,0004.69
2023-06-19 17:03:00,SystemResetWarning,0825.3,5.01,000.00,031.5,027.2,000.0,039.4,031.3,30.7,0000.0,0015.09,0005.64,0004.67
2023-06-19 17:04:00,SystemResetWarning,0825.4,4.99,000.00,031.4,027.4,000.0,039.4,031.4,30.5,0000.0,0014.65,0005.63,0004.66
2023-06-19 17:05:00,SystemResetWarning,0825.4,4.99,000.00,031.5,026.3,000.0,039.4,031.5,30.8,0000.0,0014.98,0005.68,0004.65
2023-06-19 17:06:00,SystemResetWarning,0825.4,5.01,000.00,031.4,024.9,000.0,039.3,031.2,29.6,0000.0,0014.68,0005.68,0004.65
2023-06-19 17:07:00,SystemResetWarning,0825.4,5.01,000.00,031.4,024.7,000.0,039.2,031.2,28.3,0000.0,0014.84,0005.67,0004.64
2023-06-19 17:08:00,SystemResetWarning,0825.4,5.01,000.00,031.2,025.0,000.0,039.2,030.9,30.3,0000.0,0015.98,0005.71,0004.62
2023-06-19 17:09:00,SystemResetWarning,0825.4,5.00,000.00,031.0,025.5,000.0,039.2,030.9,29.1,0000.0,0015.82,0005.68,0004.60
2023-06-19 17:10:00,SystemResetWarning,0825.4,5.00,000.00,031.0,026.0,000.0,039.2,030.9,29.1,0000.0,0015.48,0005.64,0004.57
2023-06-19 17:11:00,SystemResetWarning,0825.4,5.00,000.00,030.9,026.4,000.0,039.2,031.0,29.0,0000.0,0015.20,0005.61,0004.54
2023-06-19 17:12:00,SystemResetWarning,0825.4,5.01,000.00,030.9,026.8,000.0,039.2,031.1,28.3,0000.0,0014.94,0005.59,0004.53
2023-06-19 17:13:00,SystemResetWarning,0825.4,4.99,000.00,030.8,027.1,000.0,039.1,031.2,28.3,0000.0,0015.67,0005.61,0004.53
2023-06-19 17:14:00,SystemResetWarning,0825.4,4.99,000.00,030.8,027.4,000.0,039.1,031.2,29.6,0000.0,0016.43,0005.65,0004.52
2023-06-19 17:15:00,SystemResetWarning,0825.4,5.00,000.00,030.8,027.3,000.0,039.1,031.3,30.1,0000.0,0016.54,0005.65,0004.52
2023-06-19 17:16:00,SystemResetWarning,0825.4,4.99,000.00,030.8,025.7,000.0,039.0,031.3,29.5,0000.0,0016.25,0005.59,0004.50
2023-06-19 17:17:00,SystemResetWarning,0825.4,5.00,000.00,030.8,024.6,000.0,038.9,031.3,28.3,0000.0,0016.33,0005.56,0004.49
2023-06-19 17:18:00,SystemResetWarning,0825.4,5.01,000.00,030.7,024.7,000.0,038.9,031.1,27.4,0000.0,0016.12,0005.54,0004.48
2023-06-19 17:19:00,SystemResetWarning,0825.4,5.01,000.00,030.5,025.1,000.0,038.9,030.8,29.7,0000.0,0015.52,0005.47,0004.47
2023-06-19 17:20:00,SystemResetWarning,0825.4,4.99,000.00,030.4,025.6,000.0,038.8,030.8,28.3,0000.0,0015.19,0005.47,0004.45
2023-06-19 17:21:00,SystemResetWarning,0825.4,5.00,000.00,030.4,026.1,000.0,038.8,030.9,26.8,0000.0,0015.21,0005.47,0004.44
2023-06-19 17:22:00,SystemResetWarning,0825.4,5.00,000.00,030.3,026.5,000.0,038.8,030.9,27.4,0000.0,0016.21,0005.51,0004.44
2023-06-19 17:23:00,SystemResetWarning,0825.4,5.00,000.00,030.3,026.9,000.0,038.8,031.0,26.7,0000.0,0017.62,0005.62,0004.43
2023-06-19 17:24:00,SystemResetWarning,0825.4,5.00,000.00,030.3,027.2,000.0,038.8,031.1,27.5,0000.0,0018.75,0005.68,0004.44
2023-06-19 17:25:00,SystemResetWarning,0825.5,4.98,000.00,030.3,027.4,000.0,038.8,031.1,28.3,0000.0,0019.15,0005.71,0004.45
2023-06-19 17:26:00,SystemResetWarning,0825.4,5.00,000.00,030.3,026.8,000.0,038.7,031.3,28.3,0000.0,0019.11,0005.79,0004.47
2023-06-19 17:27:00,SystemResetWarning,0825.4,5.00,000.00,030.3,025.1,000.0,038.6,031.2,29.0,0000.0,0019.22,0005.79,0004.48
2023-06-19 17:28:00,SystemResetWarning,0825.4,5.01,000.00,030.3,024.6,000.0,038.6,031.2,28.0,0000.0,0019.61,0005.85,0004.50
2023-06-19 17:29:00,SystemResetWarning,0825.4,5.02,000.00,030.2,024.9,000.0,038.5,030.9,29.0,0000.0,0019.86,0005.94,0004.52
2023-06-19 17:30:00,SystemResetWarning,0825.4,4.99,000.00,030.1,025.3,000.0,038.5,030.7,30.7,0000.0,0020.23,0005.99,0004.55
2023-06-19 17:31:00,SystemResetWarning,0825.4,4.99,000.00,030.0,025.8,000.0,038.5,030.7,29.7,0000.0,0020.90,0006.09,0004.59
2023-06-19 17:32:00,SystemResetWarning,0825.4,5.01,000.00,030.0,026.2,000.0,038.5,030.8,29.9,0000.0,0020.94,0006.14,0004.62
2023-06-19 17:33:00,SystemResetWarning,0825.4,5.00,000.00,029.9,026.6,000.0,038.5,030.8,30.5,0000.0,0021.09,0006.19,0004.64
2023-06-19 17:34:00,SystemResetWarning,0825.4,5.00,000.00,029.9,027.0,000.0,038.4,030.9,30.4,0000.0,0021.28,0006.18,0004.66
2023-06-19 17:35:00,SystemResetWarning,0825.4,4.99,000.00,029.9,027.2,000.0,038.4,031.0,30.4,0000.0,0019.92,0006.17,0004.68
2023-06-19 17:36:00,SystemResetWarning,0825.4,5.00,000.00,029.9,027.4,000.0,038.4,031.1,30.2,0000.0,0018.91,0006.22,0004.70
2023-06-19 17:37:00,SystemResetWarning,0825.4,5.00,000.00,030.0,026.3,000.0,038.4,031.1,29.8,0000.0,0018.55,0006.24,0004.71
2023-06-19 17:38:00,SystemResetWarning,0825.3,5.01,000.00,029.9,024.8,000.0,038.3,031.0,30.9,0000.0,0019.26,0006.26,0004.72
2023-06-19 17:39:00,SystemResetWarning,0825.3,5.01,000.00,029.9,024.6,000.0,038.2,031.0,30.6,0000.0,0019.37,0006.33,0004.74
2023-06-19 17:40:00,SystemResetWarning,0825.3,5.01,000.00,029.8,025.0,000.0,038.2,030.7,30.8,0000.0,0019.27,0006.28,0004.75
2023-06-19 17:41:00,SystemResetWarning,0825.3,4.99,000.00,029.7,025.4,000.0,038.2,030.6,31.5,0000.0,0021.30,0006.26,0004.75
2023-06-19 17:42:00,SystemResetWarning,0825.3,5.00,000.00,029.6,025.9,000.0,038.2,030.7,30.0,0000.0,0020.73,0006.22,0004.75
2023-06-19 17:43:00,SystemResetWarning,0825.3,5.00,000.00,029.6,026.3,000.0,038.2,030.7,29.4,0000.0,0020.53,0006.20,0004.75
2023-06-19 17:44:00,SystemResetWarning,0825.3,5.00,000.00,029.6,026.7,000.0,038.2,030.8,29.5,0000.0,0020.45,0006.22,0004.75
2023-06-19 17:45:00,SystemResetWarning,0825.2,5.00,000.00,029.6,027.0,000.0,038.2,030.8,28.3,0000.0,0019.83,0006.21,0004.74
2023-06-19 17:46:00,SystemResetWarning,0825.3,5.00,000.00,029.7,027.3,000.0,038.2,030.9,28.1,0000.0,0020.69,0006.15,0004.72
2023-06-19 17:47:00,SystemResetWarning,0825.3,4.98,000.00,029.7,026.4,000.0,038.1,031.0,26.9,0000.0,0020.50,0006.09,0004.70
2023-06-19 17:48:00,SystemResetWarning,0825.2,5.01,000.00,029.7,024.8,000.0,038.0,030.9,26.7,0000.0,0021.08,0006.04,0004.69
2023-06-19 17:49:00,SystemResetWarning,0825.3,5.01,000.00,029.6,024.5,000.0,038.0,030.9,29.1,0000.0,0021.38,0006.03,0004.67
2023-06-19 17:50:00,SystemResetWarning,0825.3,5.01,000.00,029.5,024.9,000.0,038.0,030.6,30.7,0000.0,0021.13,0005.95,0004.65
2023-06-19 17:51:00,SystemResetWarning,0825.3,5.01,000.00,029.4,025.3,000.0,038.0,030.5,32.3,0000.0,0021.37,0005.99,0004.64
2023-06-19 17:52:00,SystemResetWarning,0825.2,4.99,000.00,029.4,025.8,000.0,037.9,030.5,31.9,0000.0,0019.78,0006.03,0004.64
2023-06-19 17:53:00,SystemResetWarning,0825.3,4.98,000.00,029.4,026.2,000.0,037.9,030.6,33.3,0000.0,0018.93,0006.08,0004.65
2023-06-19 17:54:00,SystemResetWarning,0825.3,5.02,000.00,029.4,026.6,000.0,037.9,030.7,32.8,0000.0,0018.53,0006.06,0004.65
2023-06-19 17:55:00,SystemResetWarning,0825.3,4.99,000.00,029.4,027.0,000.0,037.9,030.8,30.3,0000.0,0019.47,0006.05,0004.65
2023-06-19 17:56:00,SystemResetWarning,0825.3,5.00,000.00,029.5,027.3,000.0,037.9,030.9,24.7,0000.0,0018.79,0006.02,0004.66
2023-06-19 17:57:00,SystemResetWarning,0825.3,5.00,000.00,029.5,027.3,000.0,037.9,031.0,23.1,0000.0,0017.16,0006.03,0004.66
2023-06-19 17:58:00,SystemResetWarning,0825.3,5.00,000.00,029.5,025.9,000.0,037.9,030.8,24.8,0000.0,0017.51,0005.99,0004.63
2023-06-19 17:59:00,SystemResetWarning,0825.3,5.00,000.00,029.5,024.7,000.0,037.8,030.6,26.4,0000.0,0017.32,0005.97,0004.61
